Weather History for Crestview, FL

Change the Weather History Date:

Thursday, January 24, 2013

  Actual Average Record
Temperature  
Mean Temperature 59 °F -  
Max Temperature 72 °F - - ()
Min Temperature 46 °F - - ()
Degree Days  
Heating Degree Days 6    
Growing Degree Days 9 (Base 50)    
Moisture  
Dew Point 50 °F    
Average Humidity 76    
Maximum Humidity 100    
Minimum Humidity 45    
Precipitation  
Precipitation 0.00 in - - ()
Sea Level Pressure  
Sea Level Pressure 30.29 in    
Wind  
Wind Speed 6 mph (West)    
Max Wind Speed 16 mph    
Max Gust Speed 20 mph    
Visibility 9 miles    
Events      
T = Trace of Precipitation, MM = Missing Value Source: NWS Daily Summary

Daily Weather History Graph

Daily Weather History Graph

Search for Another Location

Airport:

Trip Planner

Search our weather history database for the weather conditions in past years. The results will help you decide how hot, cold, wet, or windy it might be!

Date:

Astronomy

Jan. 24, 2013 Rise Set
Actual Time 6:41 AM CST 5:15 PM CST
Civil Twilight 6:15 AM CST 5:41 PM CST
Nautical Twilight 5:46 AM CST 6:10 PM CST
Astronomical Twilight 5:17 AM CST 6:38 PM CST
Moon 3:19 PM CST (1/24) 4:36 AM CST (1/24)
Length of Visible Light 11h 25m
Length of Day
10h 34m
Waxing Gibbous, 94% of the Moon is Illuminated
Jan 24
Waxing Gibbous
Jan 26
Full
Feb 3
Last Quarter
Feb 10
New
Feb 17
First Quarter

Hourly Weather History & Observations

Time (CST) Temp. Dew Point Humidity Pressure Visibility Wind Dir Wind Speed Gust Speed Precip Events Conditions
12:55 AM 54.0 °F 48.9 °F 83% 30.30 in 10.0 mi WSW 5.8 mph - N/A   Clear
1:55 AM 54.0 °F 48.9 °F 83% 30.29 in 10.0 mi WSW 5.8 mph - N/A   Clear
2:55 AM 53.8 °F 49.8 °F 86% 30.29 in 10.0 mi WSW 5.8 mph - N/A   Scattered Clouds
3:55 AM 52.5 °F 49.1 °F 88% 30.29 in 10.0 mi West 5.8 mph - N/A   Clear
4:55 AM 51.3 °F 48.7 °F 91% 30.30 in 10.0 mi West 5.8 mph - N/A   Clear
5:55 AM 51.1 °F 47.7 °F 88% 30.32 in 10.0 mi West 4.6 mph - N/A   Clear
6:55 AM 50.5 °F 47.7 °F 90% 30.32 in 10.0 mi WSW 5.8 mph - N/A   Clear
7:55 AM 54.7 °F 49.6 °F 83% 30.32 in 10.0 mi West 8.1 mph - N/A   Clear
8:55 AM 59.4 °F 49.6 °F 70% 30.34 in 10.0 mi West 10.4 mph - N/A   Partly Cloudy
9:55 AM 64.2 °F 51.1 °F 62% 30.35 in 10.0 mi West 11.5 mph - N/A   Scattered Clouds
10:55 AM 67.6 °F 52.2 °F 58% 30.32 in 10.0 mi WNW 16.1 mph 19.6 mph N/A   Mostly Cloudy
11:55 AM 70.0 °F 51.8 °F 52% 30.30 in 10.0 mi WNW 9.2 mph - N/A   Mostly Cloudy
12:55 PM 72.3 °F 49.6 °F 45% 30.27 in 10.0 mi NW 9.2 mph - N/A   Mostly Cloudy
1:31 PM 69.8 °F 50.0 °F 49% 30.24 in 10.0 mi NW 5.8 mph - N/A   Mostly Cloudy
1:59 PM 71.6 °F 50.2 °F 47% 30.25 in 10.0 mi WNW 6.9 mph - N/A   Mostly Cloudy
2:55 PM 72.7 °F 50.7 °F 46% 30.24 in 10.0 mi North 8.1 mph - N/A   Mostly Cloudy
3:55 PM 70.7 °F 50.4 °F 48% 30.24 in 10.0 mi NNW 4.6 mph - N/A   Scattered Clouds
4:55 PM 67.3 °F 53.8 °F 62% 30.25 in 10.0 mi SSW 5.8 mph - N/A   Mostly Cloudy
5:55 PM 61.2 °F 52.7 °F 74% 30.26 in 10.0 mi SW 4.6 mph - N/A   Scattered Clouds
6:55 PM 57.9 °F 52.0 °F 81% 30.29 in 10.0 mi SW 4.6 mph - N/A   Mostly Cloudy
7:55 PM 59.0 °F 52.3 °F 79% 30.30 in 10.0 mi WSW 5.8 mph - N/A   Scattered Clouds
8:55 PM 57.4 °F 52.2 °F 83% 30.31 in 10.0 mi West 4.6 mph - N/A   Scattered Clouds
9:55 PM 52.9 °F 49.6 °F 89% 30.31 in 10.0 mi Calm Calm - N/A   Mostly Cloudy
10:55 PM 49.6 °F 48.4 °F 95% 30.31 in 9.0 mi South 3.5 mph - N/A   Scattered Clouds
11:55 PM 47.8 °F 46.8 °F 96% 30.29 in 7.0 mi Calm Calm - N/A   Partly Cloudy
11:56 PM 48.2 °F 46.4 °F 93% 30.29 in 1.0 mi Calm Calm - N/A   Clear
11:57 PM 48.2 °F 46.4 °F 93% 30.29 in 1.2 mi Calm Calm - N/A   Clear
11:58 PM 46.4 °F 46.4 °F 100% 30.29 in 2.0 mi Calm Calm - N/A   Clear
11:59 PM 46.4 °F 46.4 °F 100% 30.29 in 3.0 mi Calm Calm - N/A   Clear